Regional Weather Roundup
Issued by NWS

Home | Current Version | Previous Version | Graphics & Text | Print | Product List | Glossary On
Versions: 1 2 3 4 5 6 7 8 9 10 11 12 13 14 15 16 17 18 19 20 21 22 23 24 25 26 27 28 29 30 31 32 33 34 35 36 37 38 39 40 41 42 43 44 45 46 47 48 49 50
000
ASUS43 KLOT 300403
RWRIL

ILLINOIS REGIONAL WEATHER ROUNDUP
NATIONAL WEATHER SERVICE CHICAGO/ROMEOVILLE IL
1100 PM CDT FRI APR 29 2016

NOTE: "FAIR" INDICATES FEW OR NO CLOUDS BELOW 12,000 FEET WITH NO
SIGNIFICANT WEATHER AND/OR OBSTRUCTIONS TO VISIBILITY.

* THESE STATIONS ARE NOT UNDER NWS QUALITY CONTROL. THEY ALSO MAY NOT
  REPORT WEATHER SUCH AS PRECIPITATION OR FOG.

ILZ001-002-007-009-015-016-024-300500-
NORTHWEST ILLINOIS

CITY           SKY/WX    TMP DP  RH WIND       PRES   REMARKS
MOLINE         CLOUDY    48  41  76 E16       30.05F
STERLING*      CLOUDY    46  43  87 E9        30.08F
$$

ILZ003-004-008-010-011-017-018-300500-
NORTH CENTRAL ILLINOIS

CITY           SKY/WX    TMP DP  RH WIND       PRES   REMARKS
ROCKFORD       PTCLDY    43  38  82 E7        30.13S
FREEPORT*      CLOUDY    40  38  94 E3        30.12S
DE KALB*       CLOUDY    44  40  86 E7        30.11F
$$

ILZ005-006-012>014-019>023-300500-
NORTHEAST ILLINOIS

CITY           SKY/WX    TMP DP  RH WIND       PRES   REMARKS
CHICAGO-OHARE  CLOUDY    43  37  79 E9        30.12F
CHICAGO-MIDWAY CLOUDY    45  37  73 E10       30.12F
AURORA         CLOUDY    46  39  76 E8        30.11F
LANSING*       CLOUDY    43  39  86 NE7       30.13F
WAUKEGAN       CLOUDY    42  36  79 NE6       30.13F
DUPAGE AIRPORT CLOUDY    44  37  76 E9        30.11F
WHEELING       CLOUDY    42  37  82 NE7       30.14F
NORTHERLY ISL    N/A     42  39  89 NE7         N/A
NORTHERLY ISL    N/A     42  39  89 NE7         N/A
$$

LMZ740>746-300500-
SOUTHERN LAKE MICHIGAN

STATION/POSITION SKY/WX   TEMP    WIND        PRES    VSBY  WAVE
                          AIR SEA DIR/SP/G                  HT/PER
                          (F)     (DEG/KT/KT) (MB)    (MI)  (FT/S)
SOUTHERN BUOY              41 40   60/ 10/ 10 1020.7          1/ 3
HARRISON CRIB              42      50/  7/  8   N/A
BURNHAM HARBOR             43      40/  7/  9   N/A
CALUMET HARBOR             42                   N/A
BURNS HARBOR               44      50/  9/ 12 1020.7F
MICHIGAN CITY              44      20/  9/ 10   N/A
ST. JOSEPH                 46 47                N/A           2/ 4
$$

ILZ025>027-034>036-040-047-049-050-058-095>099-300500-
WEST-CENTRAL ILLINOIS

CITY           SKY/WX    TMP DP  RH WIND       PRES   REMARKS
QUINCY         LGT RAIN  53  47  79 E14       29.95F
MACOMB*        CLOUDY    49  45  88 E14       30.03F
$$

ILZ028>032-037-038-041>044-048-051>054-059>061-300500-
CENTRAL ILLINOIS

CITY           SKY/WX    TMP DP  RH WIND       PRES   REMARKS
BLOOMINGTON    CLOUDY    48  46  93 E15       30.06S
DECATUR        CLOUDY    54  47  77 E14       30.01F
PEORIA         CLOUDY    49  43  80 NE12      30.04F
SPRINGFIELD    CLOUDY    55  48  77 NE10      30.01F
TAYLORVILLE    NOT AVBL
$$

ILZ033-039-045-046-055>057-062-063-300500-
EAST-CENTRAL ILLINOIS

CITY           SKY/WX    TMP DP  RH WIND       PRES   REMARKS
CHAMPAIGN      CLOUDY    52  47  83 NE14      30.05S
MATTOON        CLOUDY    56  48  74 NE15      30.01S
$$

ILZ079-100>102-300500-
SOUTHWEST ILLINOIS

CITY           SKY/WX    TMP DP  RH WIND       PRES   REMARKS
BELLEVILLE     LGT RAIN  59  59 100 E8        29.96R FOG
CAHOKIA*       LGT RAIN  60  55  83 E10       29.95S
SPARTA*        DRIZZLE   60  55  83 E9        29.95F
$$

ILZ064>066-069>071-074>076-080>082-084>086-088>090-092>094-300500-
SOUTH-CENTRAL ILLINOIS

CITY           SKY/WX    TMP DP  RH WIND       PRES   REMARKS
CARBONDALE     CLOUDY    60  56  86 E9        29.94F
MT. VERNON     CLOUDY    61  52  72 NE6       29.99S
SALEM*         CLOUDY    63  53  71 E6        29.98R
$$

ILZ067-068-072-073-078-083-087-091-300500-
SOUTHEAST ILLINOIS

CITY           SKY/WX    TMP DP  RH WIND       PRES   REMARKS
LAWRENCEVILLE  CLOUDY    62  53  72 NE9       29.99F
FLORA*         CLOUDY    63  54  73 E5        29.99S
HARRISBURG*    CLOUDY    61  56  84 NE6       29.98F
ROBINSON*      CLOUDY    60  52  74 NE8       30.02F
$$

ABBREVIATIONS USED IN REMARKS
   TC - TEMPERATURE IN CELSIUS
  WCI - WIND CHILL INDEX
   HX - HEAT INDEX
  VSB - VISIBILITY
$$





USA.gov is the U.S. government's official web portal to all federal, state and local government web resources and services.